Location: La Bilong�re
(48.1297°N, 1.4584°W)
Time: 21:35:03
(UTC+00:00)

ATLAS CENTAUR R/B - Pass Details

Date: 03 March 2021
Orbit: 475 x 670 km, 64.7° (Epoch: 30 March)

Event Time Altitude Azimuth Distance (km) Brightness Sun altitude
Rises 18:18:34 0° 176° (S) 2,521 4.7 -5.0°
Reaches altitude 10° 18:21:15 10° 155° (SSE) 1,640 3.5 -5.5°
Maximum altitude 18:23:37 17° 114° (ESE) 1,288 2.7 -5.8°
Drops below altitude 10° 18:26:00 10° 73° (ENE) 1,652 3.1 -6.2°
Enters shadow 18:27:02 - 63° (ENE) 1,964 3.6 -6.4°
